Regional Weather Roundup
Issued by NWS Albany, NY

Home | Current Version | Previous Version | Text Only | Print | Product List | Glossary On
Versions: 1 2 3 4 5 6 7 8 9 10 11 12 13 14 15 16 17 18 19 20 21 22 23 24 25 26 27 28 29 30 31 32 33 34 35 36 37 38 39 40 41 42 43 44 45 46 47 48 49 50
000
ASUS41 KALY 220710
RWRALY

NEW YORK STATE HOURLY WEATHER ROUNDUP
NATIONAL WEATHER SERVICE ALBANY NY
300 AM EDT MON SEP 22 2014

NOTE: "FAIR" INDICATES FEW OR NO CLOUDS BELOW 12,000 FEET WITH NO
SIGNIFICANT WEATHER AND/OR NO OBSTRUCTIONS TO VISIBILITY.

NYZ032-033-038>043-046>054-057>066-NYZ062>081-220800-
EAST


CITY           SKY/WX    TMP DP  RH WIND       PRES   REMARKS
ALBANY         PTCLDY    58  55  90 SW6       29.62F
GLENS FALLS    MOCLDY    58  55  90 S7        29.58F FOG
POUGHKEEPSIE   CLOUDY    65  60  84 SW8       29.64R
NEWBURGH       PTCLDY    63  59  88 W12       29.68R
MONTGOMERY     PTCLDY    58  56  93 SW3       29.67R
WHITE PLAINS   PTCLDY    64  58  80 W7        29.66R
ISLIP          MOCLDY    68  64  87 W8        29.62R
NEW YORK CITY  PTCLDY    69  59  70 NW10      29.66R
CENTRAL PARK   PTCLDY    68  57  68 VRB5      29.70R
$$

NYZ005>009-017-018-044>046-055-056-220800-
CENTRAL


CITY           SKY/WX    TMP DP  RH WIND       PRES   REMARKS
FULTON         CLOUDY    54  50  86 NW13      29.70R
SYRACUSE       CLOUDY    58  54  86 NW16      29.68R
ROME           CLOUDY    58  54  86 W6        29.65R
ELMIRA         CLOUDY    59  53  80 SW10      29.72R
BINGHAMTON     MOCLDY    54  51  90 W8        29.71R
MONTICELLO     PTCLDY    55  54  94 W7        29.71R
$$

NYZ026>034-041>043-220800-
NORTH


CITY           SKY/WX    TMP DP  RH WIND       PRES   REMARKS
WATERTOWN      CLOUDY    53  44  71 NW10      29.69R
FORT DRUM      NOT AVBL
MASSENA        LGT RAIN  51  48  89 W15G24    29.61S
SARANAC LAKE   CLOUDY    54  53  97 VRB5      29.56S
PLATTSBURGH    MOCLDY    63  58  83 VRB3      29.50F
$$

NYZ001>004-010>016-019>021-220800-
WEST


CITY           SKY/WX    TMP DP  RH WIND       PRES   REMARKS
NIAGARA FALLS  CLOUDY    50  45  83 N15       29.83R
BUFFALO        CLOUDY    50  45  83 NW17      29.83R
DUNKIRK        CLOUDY    52  47  83 W16G23    29.88R
JAMESTOWN      CLOUDY    48  45  87 NW17      29.87S
WELLSVILLE     CLOUDY    50  48  93 NW16G28   29.82R
ROCHESTER      LGT RAIN  53  51  93 NW14      29.78R FOG
PENN YAN       CLOUDY    58  53  84 W12       29.73R
$$

             KEY
       WCI = WIND CHILL INDEX
       VSB = VISIBILITY
       HX  = HEAT INDEX
$$


USA.gov is the U.S. government's official web portal to all federal, state and local government web resources and services.